AirNav   Everest Fuels
 
 1293 users online  

73T Desoto Heliport
Desoto, Texas, USA

GOING TO DESOTO?


FAA INFORMATION EFFECTIVE 07 NOVEMBER 2019

Location

FAA Identifier: 73T
Lat/Long: 32-37-53.9800N 096-51-18.8200W
32-37.899667N 096-51.313667W
32.6316611,-96.8552278
(estimated)
Elevation: 648.5 ft. / 198 m (estimated)
From city: 3 miles N of DESOTO, TX
Time zone: UTC -6 (UTC -5 during Daylight Saving Time)
Zip code: 75232

Heliport Operations

Heliport use: Open to the public
Activation date: 02/2015
Control tower: no
ARTCC: FORT WORTH CENTER
FSS: FORT WORTH FLIGHT SERVICE STATION
NOTAMs facility: FTW (NOTAM-D service available)
Attendance: MON-FRI 0900-1800
Wind indicator: lighted
Segmented circle: no
Beacon: white-green-yellow (heliport)
Operates sunset to sunrise.

Heliport Communications

CTAF: 122.9
WX ASOS at RBD (3 nm N): PHONE 214-330-5317
WX AWOS-3 at LNC (8 nm SE): 118.975 (972-227-0471)
WX AWOS-3 at 49T (9 nm N): 135.425 (214-670-1243)
WX AWOS-3P at GPM (10 nm NW): 118.475 (972-606-1433)
WX AWOS-3 at JWY (11 nm S): 119.575 (972-937-4747)
WX ASOS at GKY (12 nm W): 127.375 (817-557-0251)
WX ASOS at DAL (13 nm N): PHONE 214-353-1551
WX AWOS-3 at HQZ (18 nm NE): 118.175 (972-222-7631)
WX ASOS at DFW (18 nm NW): PHONE 972-615-2608

Nearby radio navigation aids

VOR radial/distance  VOR name  Freq  Var
CVEr165/15.7COWBOY VOR/DME116.2006E
TTTr141/17.0MAVERICK VOR/DME113.1006E
FUZr127/22.5RANGER VORTAC115.7006E

 
NDB name  Hdg/Dist  Freq  Var  ID
MESQUITE234/19.624803EPQF .--. --.- ..-.
TRAVIS250/31.626006EAVZ .- ...- --..
CADDO MILLS225/39.231606EMII -- .. ..

Heliport Services

Fuel available: 100LL JET-A
SELF-SERVE FUEL.
Parking: hangars and tiedowns
Airframe service: MAJOR
Powerplant service: MAJOR

Runway Information

Helipad H1

Dimensions: 54 x 54 ft. / 16 x 16 m
Surface: concrete, in good condition
Runway edge lights: PERI
PERIMETER LGTS WITH RECESSED LGTS SRNDG LNDG PADS. NON STD ALL GREEN.
Operational restrictions: INGRESS/EGRESS N &S.
Traffic pattern: leftleft
Markings: basic, in good condition

Heliport Ownership and Management from official FAA records

Ownership: Publicly-owned
Owner: CITY OF DESOTO
211 E. PLEASANT RUN RD
DESOTO, TX 75115
Phone 972-274-2489
Manager: KEN PYATT
150 E. DANIELDALE RD
DESOTO, TX 75115
Phone 214-379-6790

Heliport Operational Statistics

Aircraft based on the field: 6
Helicopters: 6
    

Additional Remarks

A52-H1 49 FT POWER POLE 1,529 FT NORTH; 15 FT RD, 500 FT NORTH; 42 FT BLDG., 270 FT NORTHEAST; 35 FT TREE 783 FT SOUTH; 33 FT TREES 85 FT WEST; 36 FT BUILDING 276 FT EAST.
A57-H1 APCH RATIO TO N 33:1; TO S 22:1; TO W 2:1; TO E 8:1.
INSIDE KRBD CLASS D SFC AREA, CTC DALLAS EXEC TWR 127.25.
FOR CD CTC REGIONAL APCH AT 972-615-2799.
1024 FT MSL (310 FT AGL) TWR, 310 DEG .73 MILE FM HELIPAD.

Instrument Procedures

There are no published instrument procedures at 73T.

Some nearby airports with instrument procedures:

KRBD - Dallas Executive Airport (3 nm N)
KLNC - Lancaster Regional Airport (8 nm SE)
KGPM - Grand Prairie Municipal Airport (10 nm NW)
KJWY - Mid-Way Regional Airport (11 nm S)
KGKY - Arlington Municipal Airport (12 nm W)
KDAL - Dallas Love Field Airport (13 nm N)
KHQZ - Mesquite Metro Airport (18 nm NE)
KDFW - Dallas-Fort Worth International Airport (18 nm NW)
 
Loc | Ops | Rwys | IFR | FBO | Links
Com | Nav | Svcs | Stats | Notes
Aerial photo
No photo
 
Airport distance calculator
Flying to Desoto Heliport? Find the distance to fly.

From to 73T

Sunrise and sunset
Times for 15-Nov-2019
 Local
(UTC-6)
 Zulu
(UTC)
Morning civil twilight06:3212:32
Sunrise06:5812:58
Sunset17:2623:26
Evening civil twilight17:5223:52

Current date and time
Zulu (UTC)  15-Nov-2019 16:44:42
Local (UTC-6)  15-Nov-2019 10:44:42
 
METAR
KRBD 
3nm N 
151553Z 05005KT 10SM CLR 12/M01 A3042 RMK AO2 SLP302 T01171006
KLNC 
8nm SE 
151635Z AUTO 03004KT 10SM CLR 11/00 A3044 RMK AO2 T01091002
KGPM 
11nm NW 
151550Z 00000KT 10SM SKC 09/01 A3045
KJWY 
11nm S 
151635Z AUTO 03003KT 10SM CLR 12/00 A3044 RMK AO2 T01160000
KGKY 
13nm W 
151553Z 05003KT 10SM CLR 10/00 A3044 RMK AO2 SLP307 T01000000 $
KDAL 
13nm N 
151553Z 00000KT 10SM CLR 10/01 A3044 RMK AO2 SLP305 T01000006 $
KHQZ 
18nm NE 
151550Z 35003KT 10SM CLR 09/02 A3044
KDFW 
18nm NW 
151553Z 08004KT 10SM CLR 10/00 A3042 RMK AO2 SLP301 T01000000
TAF
KGKY 
13nm W 
151454Z 1515/1612 01006KT P6SM SKC FM160300 16007KT P6SM SKC
KDAL 
13nm N 
151454Z 1515/1612 02006KT P6SM SKC FM160300 16007KT P6SM SKC
KDFW 
18nm NW 
151454Z 1515/1618 01006KT P6SM SKC FM160300 16007KT P6SM SKC
NOTAMs
Click for the latest NOTAMs
NOTAMs are issued by the DoD/FAA and will open in a separate window not controlled by AirNav.

 

 
 

Would you like to see your business listed on this page?

 If your business provides an interesting product or service to pilots, flight crews, aircraft, or users of the Desoto Heliport, you should consider listing it here.  To start the listing process, click on the button below
 
Add a business
 

Other Pages about Desoto Heliport

Update a link
 
Copyright © AirNav, LLC. All rights reserved. Privacy Policy  Contact